When you browse on this site, cookies collect data to enhance your experience and personalize the content and advertising you see.
Visit our Privacy Policy to learn more. By continuing to use the site, you agree to this use of cookies and data.
  • In Latvia
  • List of Countries
  • For 7 days
  • Water Temperature
  • Satellite Maps
  • Weather Map
  • Weather Widgets
  • user-avatar
    Login

    Hourly Weather Proletarskiy

    Today, 24 March, Sunday

    Time Temperature Precipitation Wind Pressure Humidity
    00:00 -2°C° 0 mm 2 mps 735 mmHg 86%
    01:00 -2°C° 0 mm 2 mps 735 mmHg 86%
    02:00 -3°C° 0 mm 2 mps 735 mmHg 86%
    03:00 -3°C° 0 mm 2 mps 735 mmHg 86%
    04:00 -3°C° 0 mm 2 mps 735 mmHg 85%
    05:00 -3°C° 0 mm 2 mps 735 mmHg 83%
    06:00 -4°C° 0 mm 3 mps 736 mmHg 82%
    07:00 -2°C° 0 mm 3 mps 736 mmHg 78%
    08:00 0°C° 0 mm 3 mps 736 mmHg 74%
    09:00 +1°C° 0 mm 4 mps 736 mmHg 70%
    10:00 +1°C° 0.1 mm 4 mps 736 mmHg 71%
    11:00 +3°C° 0.1 mm 4 mps 736 mmHg 73%
    12:00 +3°C° 0.1 mm 4 mps 736 mmHg 75%
    13:00 +3°C° 0.1 mm 5 mps 736 mmHg 72%
    14:00 +3°C° 0.1 mm 5 mps 736 mmHg 70%
    15:00 +5°C° 0.1 mm 5 mps 736 mmHg 68%
    16:00 +3°C° 0.1 mm 5 mps 736 mmHg 72%
    17:00 +3°C° 0.1 mm 4 mps 736 mmHg 75%
    18:00 +1°C° 0.1 mm 4 mps 737 mmHg 78%
    19:00 +1°C° 0 mm 3 mps 737 mmHg 82%
    20:00 +1°C° 0 mm 2 mps 737 mmHg 86%
    21:00 -1°C° 0 mm 2 mps 738 mmHg 90%
    22:00 -1°C° 0 mm 2 mps 738 mmHg 89%
    23:00 +1°C° 0 mm 1 mps 737 mmHg 89%

    Tomorrow, 25 March, Monday

    Time Temperature Precipitation Wind Pressure Humidity
    00:00 +1°C° 0 mm 1 mps 737 mmHg 89%
    01:00 0°C° 0 mm 1 mps 737 mmHg 89%
    02:00 0°C° 0 mm 1 mps 737 mmHg 89%
    03:00 -1°C° 0 mm 1 mps 737 mmHg 89%
    04:00 -1°C° 0 mm 1 mps 737 mmHg 88%
    05:00 -1°C° 0 mm 1 mps 737 mmHg 86%
    06:00 -1°C° 0 mm 1 mps 737 mmHg 85%
    07:00 +1°C° 0 mm 1 mps 737 mmHg 78%
    08:00 +3°C° 0 mm 1 mps 737 mmHg 71%
    09:00 +5°C° 0 mm 1 mps 737 mmHg 65%
    10:00 +6°C° 0 mm 1 mps 736 mmHg 62%
    11:00 +7°C° 0 mm 1 mps 736 mmHg 58%
    12:00 +9°C° 0 mm 1 mps 736 mmHg 55%
    13:00 +9°C° 0 mm 1 mps 735 mmHg 55%
    14:00 +9°C° 0 mm 1 mps 735 mmHg 54%
    15:00 +10°C° 0 mm 1 mps 734 mmHg 54%
    16:00 +9°C° 0 mm 1 mps 734 mmHg 59%
    17:00 +8°C° 0 mm 1 mps 734 mmHg 63%
    18:00 +8°C° 0 mm 1 mps 734 mmHg 68%
    19:00 +6°C° 0 mm 1 mps 735 mmHg 71%
    20:00 +5°C° 0 mm 1 mps 735 mmHg 74%
    21:00 +4°C° 0 mm 1 mps 735 mmHg 77%
    22:00 +4°C° 0 mm 1 mps 735 mmHg 78%
    23:00 +3°C° 0 mm 1 mps 735 mmHg 80%

    Day after tomorrow, 26 March, Tuesday

    Time Temperature Precipitation Wind Pressure Humidity
    00:00 +3°C° 0 mm 1 mps 735 mmHg 81%
    01:00 +3°C° 0 mm 1 mps 735 mmHg 82%
    02:00 +2°C° 0 mm 1 mps 735 mmHg 82%
    03:00 +2°C° 0 mm 1 mps 735 mmHg 83%
    04:00 +2°C° 0 mm 1 mps 735 mmHg 83%
    05:00 +2°C° 0 mm 1 mps 735 mmHg 83%
    06:00 +2°C° 0 mm 1 mps 735 mmHg 83%
    07:00 +4°C° 0 mm 1 mps 735 mmHg 77%
    08:00 +6°C° 0 mm 1 mps 735 mmHg 71%
    09:00 +7°C° 0 mm 0 mps 735 mmHg 64%
    10:00 +10°C° 0 mm 1 mps 735 mmHg 60%
    11:00 +11°C° 0 mm 1 mps 735 mmHg 55%
    12:00 +13°C° 0 mm 1 mps 734 mmHg 51%
    13:00 +14°C° 0 mm 1 mps 734 mmHg 49%
    14:00 +14°C° 0 mm 1 mps 734 mmHg 46%
    15:00 +15°C° 0 mm 1 mps 733 mmHg 44%
    16:00 +14°C° 0 mm 1 mps 733 mmHg 49%
    17:00 +13°C° 0 mm 1 mps 733 mmHg 54%
    18:00 +11°C° 0 mm 1 mps 733 mmHg 59%
    19:00 +10°C° 0 mm 1 mps 733 mmHg 63%
    20:00 +9°C° 0 mm 1 mps 733 mmHg 66%
    21:00 +7°C° 0 mm 1 mps 734 mmHg 69%
    22:00 +7°C° 0 mm 1 mps 734 mmHg 72%
    23:00 +6°C° 0 mm 1 mps 733 mmHg 74%

    27 March, Wednesday

    Time Temperature Precipitation Wind Pressure Humidity
    00:00 +5°C° 0 mm 2 mps 733 mmHg 76%
    01:00 +5°C° 0 mm 2 mps 733 mmHg 77%
    02:00 +4°C° 0 mm 2 mps 734 mmHg 79%
    03:00 +4°C° 0 mm 2 mps 734 mmHg 80%
    04:00 +4°C° 0 mm 2 mps 734 mmHg 81%
    05:00 +5°C° 0 mm 1 mps 734 mmHg 82%
    06:00 +4°C° 0 mm 1 mps 734 mmHg 83%
    07:00 +6°C° 0 mm 1 mps 735 mmHg 78%
    08:00 +7°C° 0 mm 2 mps 735 mmHg 73%
    09:00 +8°C° 0 mm 2 mps 735 mmHg 68%
    10:00 +9°C° 0 mm 2 mps 736 mmHg 65%
    11:00 +10°C° 0 mm 3 mps 736 mmHg 61%
    12:00 +12°C° 0 mm 4 mps 736 mmHg 58%
    13:00 +10°C° 0 mm 5 mps 736 mmHg 62%
    14:00 +9°C° 0 mm 5 mps 736 mmHg 66%
    15:00 +9°C° 0 mm 5 mps 736 mmHg 70%
    16:00 +8°C° 0.1 mm 5 mps 737 mmHg 69%
    17:00 +7°C° 0.1 mm 4 mps 737 mmHg 67%
    18:00 +7°C° 0.1 mm 4 mps 738 mmHg 65%
    19:00 +5°C° 0 mm 3 mps 738 mmHg 64%
    20:00 +4°C° 0 mm 3 mps 739 mmHg 62%
    21:00 +4°C° 0 mm 2 mps 740 mmHg 61%
    22:00 +3°C° 0 mm 2 mps 740 mmHg 64%
    23:00 +2°C° 0 mm 2 mps 740 mmHg 68%

    28 March, Thursday

    Time Temperature Precipitation Wind Pressure Humidity
    00:00 +2°C° 0 mm 1 mps 741 mmHg 72%
    01:00 +2°C° 0 mm 1 mps 741 mmHg 71%
    02:00 +1°C° 0 mm 1 mps 741 mmHg 70%
    03:00 0°C° 0 mm 0 mps 741 mmHg 70%
    04:00 -1°C° 0 mm 0 mps 742 mmHg 69%
    05:00 -1°C° 0 mm 0 mps 742 mmHg 69%
    06:00 -1°C° 0 mm 0 mps 742 mmHg 68%
    07:00 +1°C° 0 mm 1 mps 742 mmHg 60%
    08:00 +3°C° 0 mm 1 mps 743 mmHg 51%
    09:00 +5°C° 0 mm 1 mps 743 mmHg 42%
    10:00 +5°C° 0 mm 2 mps 743 mmHg 39%
    11:00 +6°C° 0 mm 2 mps 743 mmHg 36%
    12:00 +7°C° 0 mm 2 mps 743 mmHg 33%
    13:00 +7°C° 0 mm 2 mps 742 mmHg 34%
    14:00 +7°C° 0 mm 3 mps 742 mmHg 35%
    15:00 +7°C° 0 mm 3 mps 742 mmHg 36%
    16:00 +7°C° 0 mm 2 mps 742 mmHg 42%
    17:00 +6°C° 0 mm 2 mps 742 mmHg 47%
    18:00 +5°C° 0 mm 2 mps 742 mmHg 53%
    19:00 +4°C° 0 mm 2 mps 742 mmHg 56%
    20:00 +3°C° 0 mm 1 mps 742 mmHg 59%
    21:00 +2°C° 0 mm 1 mps 743 mmHg 63%
    22:00 +2°C° 0 mm 1 mps 743 mmHg 64%
    23:00 +1°C° 0 mm 1 mps 743 mmHg 66%

    29 March, Friday

    Time Temperature Precipitation Wind Pressure Humidity
    00:00 +1°C° 0 mm 1 mps 743 mmHg 67%
    01:00 +1°C° 0 mm 1 mps 743 mmHg 67%
    02:00 0°C° 0 mm 1 mps 742 mmHg 67%
    03:00 0°C° 0 mm 1 mps 742 mmHg 68%
    04:00 0°C° 0 mm 1 mps 742 mmHg 68%
    05:00 0°C° 0 mm 1 mps 742 mmHg 67%
    06:00 0°C° 0 mm 1 mps 742 mmHg 67%
    07:00 +2°C° 0 mm 1 mps 742 mmHg 61%
    08:00 +4°C° 0 mm 1 mps 742 mmHg 54%
    09:00 +6°C° 0 mm 1 mps 742 mmHg 48%
    10:00 +6°C° 0 mm 2 mps 742 mmHg 45%
    11:00 +7°C° 0 mm 2 mps 742 mmHg 42%
    12:00 +9°C° 0 mm 2 mps 741 mmHg 39%
    13:00 +9°C° 0 mm 2 mps 741 mmHg 39%
    14:00 +9°C° 0 mm 2 mps 741 mmHg 39%
    15:00 +9°C° 0 mm 3 mps 740 mmHg 39%
    16:00 +8°C° 0 mm 2 mps 740 mmHg 44%
    17:00 +7°C° 0 mm 2 mps 740 mmHg 49%
    18:00 +7°C° 0 mm 1 mps 740 mmHg 54%
    19:00 +6°C° 0 mm 1 mps 740 mmHg 56%
    20:00 +4°C° 0 mm 0 mps 740 mmHg 59%
    21:00 +2°C° 0 mm 0 mps 741 mmHg 62%
    22:00 +2°C° 0 mm 0 mps 740 mmHg 63%
    23:00 +3°C° 0 mm 1 mps 740 mmHg 65%
    Show more